Weather History for Ravenna, OH

Change the Weather History Date:

Saturday, October 5, 2013

  Actual Average (KCAK) Record (KCAK)
Temperature  
Mean Temperature 68 °F 55 °F  
Max Temperature 75 °F 65 °F 89 °F (1922)
Min Temperature 60 °F 46 °F 30 °F (1965)
Degree Days  
Heating Degree Days 0 10  
Month to date heating degree days 47  
Since 1 July heating degree days 186  
Cooling Degree Days 2 0  
Month to date cooling degree days 3  
Year to date cooling degree days 649  
Growing Degree Days 18 (Base 50)    
Moisture  
Dew Point 69 °F    
Average Humidity 94    
Maximum Humidity 100    
Minimum Humidity 71    
Precipitation  
Precipitation 0.14 in 0.09 in 1.30 in (2013)
Month to date precipitation 0.46  
Year to date precipitation 31.11  
Snow  
Snow 0.00 in 0.00 in - ()
Month to date snowfall 0.0  
Since 1 July snowfall 0.0  
Since 1 September snowfall 0.0  
Snow Depth -    
Sea Level Pressure  
Sea Level Pressure 30.05 in    
Wind  
Wind Speed 0 mph (SSE)    
Max Wind Speed 5 mph    
Max Gust Speed -    
Visibility 4 miles    
Events Fog , Rain    
T = Trace of Precipitation, MM = Missing Value Source: NWS Daily Summary

Daily Weather History Graph

Daily Weather History Graph

Search for Another Location

Airport:

Trip Planner

Search our weather history database for the weather conditions in past years. The results will help you decide how hot, cold, wet, or windy it might be!

Date:

Astronomy

Oct. 05, 2013 Rise Set
Actual Time 7:26 AM EDT 6:59 PM EDT
Civil Twilight 6:58 AM EDT 7:27 PM EDT
Nautical Twilight 6:26 AM EDT 7:59 PM EDT
Astronomical Twilight 5:54 AM EDT 8:31 PM EDT
Moon 8:04 AM EDT (10/5) 7:16 PM EDT (10/5)
Length of Visible Light 12h 28m
Length of Day
11h 33m
New Moon, 0% of the Moon is Illuminated
Oct 5
New Moon
Oct 11
First Quarter
Oct 18
Full
Oct 26
Last Quarter
Nov 3
New

Hourly Weather History & Observations

Time (EDT) Temp. Dew Point Humidity Pressure Visibility Wind Dir Wind Speed Gust Speed Precip Events Conditions
12:15 AM 65.3 °F - N/A% 30.08 in 0.8 mi Calm Calm - N/A   Overcast
12:34 AM 65.8 °F - N/A% 30.08 in 1.0 mi Calm Calm - N/A   Overcast
12:55 AM 66.0 °F - N/A% 30.08 in 3.0 mi Calm Calm - N/A   Overcast
1:15 AM 64.9 °F - N/A% 30.08 in 1.8 mi Calm Calm - N/A   Overcast
1:34 AM 65.5 °F - N/A% 30.08 in 0.5 mi Calm Calm - N/A Fog Fog
1:55 AM 65.8 °F - N/A% 30.08 in 0.8 mi Calm Calm - N/A   Overcast
2:15 AM 65.3 °F - N/A% 30.08 in 0.5 mi Calm Calm - N/A Fog Fog
2:35 AM 64.6 °F - N/A% 30.08 in 2.5 mi Calm Calm - N/A   Mostly Cloudy
2:54 AM 64.6 °F - N/A% 30.08 in 1.5 mi Calm Calm - N/A   Mist
3:15 AM 63.7 °F - N/A% 30.08 in 2.0 mi Calm Calm - N/A   Mostly Cloudy
3:34 AM 64.0 °F - N/A% 30.08 in 0.8 mi Calm Calm - N/A   Overcast
3:55 AM 64.4 °F - N/A% 30.07 in 0.8 mi Calm Calm - N/A   Mostly Cloudy
4:15 AM 64.4 °F - N/A% 30.07 in 1.5 mi Calm Calm - N/A   Mostly Cloudy
4:34 AM 63.1 °F - N/A% 30.07 in 0.8 mi Calm Calm - N/A   Mostly Cloudy
4:54 AM 62.2 °F - N/A% 30.07 in 0.2 mi Calm Calm - N/A Fog Fog
5:15 AM 61.7 °F - N/A% 30.07 in 0.2 mi Calm Calm - N/A Fog Fog
5:34 AM 60.6 °F - N/A% 30.07 in 0.5 mi Calm Calm - N/A Fog Fog
5:54 AM 62.2 °F - N/A% 30.08 in 0.8 mi Calm Calm - N/A   Overcast
6:15 AM 62.2 °F - N/A% 30.09 in 0.2 mi Calm Calm - N/A Fog Fog
6:34 AM 62.2 °F - N/A% 30.08 in 0.2 mi Calm Calm - N/A Fog Fog
6:54 AM 62.6 °F - N/A% 30.09 in 0.2 mi Calm Calm - N/A Fog Fog
7:15 AM 61.9 °F - N/A% 30.08 in 0.2 mi Calm Calm - N/A Fog Fog
7:34 AM 61.2 °F - N/A% 30.08 in 0.2 mi Calm Calm - N/A Fog Fog
7:54 AM 60.8 °F - N/A% 30.09 in 0.2 mi Calm Calm - N/A Fog Fog
8:15 AM 61.7 °F - N/A% 30.09 in 0.2 mi Calm Calm - N/A Fog Fog
8:34 AM 64.6 °F - N/A% 30.09 in 2.0 mi Calm Calm - N/A   Overcast
8:55 AM 65.3 °F - N/A% 30.09 in 3.0 mi Calm Calm - N/A   Scattered Clouds
9:15 AM 66.0 °F - N/A% 30.09 in 4.0 mi Calm Calm - N/A   Haze
9:34 AM 66.4 °F - N/A% 30.08 in 5.0 mi Calm Calm - N/A   Haze
9:54 AM 67.3 °F - N/A% 30.08 in 7.0 mi Calm Calm - N/A   Clear
10:15 AM 69.6 °F 68.5 °F 96% 30.08 in 7.0 mi Calm Calm - N/A   Clear
10:34 AM 71.6 °F 66.7 °F 85% 30.08 in 10.0 mi Calm Calm - N/A   Clear
10:54 AM 72.9 °F 66.2 °F 80% 30.07 in 10.0 mi Calm Calm - N/A   Clear
11:15 AM 74.1 °F 65.3 °F 74% 30.07 in 10.0 mi Calm Calm - N/A   Clear
11:34 AM 75.2 °F 65.3 °F 71% 30.07 in 7.0 mi Calm Calm - N/A   Unknown
11:55 AM 74.3 °F 64.4 °F 71% 30.07 in 7.0 mi Calm Calm - N/A   Unknown
12:15 PM 74.1 °F 64.4 °F 72% 30.07 in 7.0 mi Calm Calm - N/A   Scattered Clouds
12:34 PM 72.7 °F 65.8 °F 79% 30.08 in 10.0 mi Calm Calm - N/A   Mostly Cloudy
12:55 PM 72.5 °F 66.2 °F 81% 30.07 in 7.0 mi Calm Calm - N/A   Mostly Cloudy
1:15 PM 72.0 °F 66.6 °F 83% 30.08 in 7.0 mi Calm Calm - N/A   Mostly Cloudy
1:34 PM 71.6 °F 68.5 °F 90% 30.07 in 10.0 mi Calm Calm - N/A Rain Light Rain
1:54 PM 71.6 °F 71.4 °F 99% 30.07 in 7.0 mi Calm Calm - 0.01 in Rain Light Rain
2:15 PM 71.8 °F 71.8 °F 100% 30.04 in 7.0 mi ESE 4.6 mph - N/A Rain Light Rain
2:34 PM 72.7 °F 69.3 °F 89% 30.04 in 7.0 mi Calm Calm - N/A   Scattered Clouds
2:55 PM 71.4 °F 71.4 °F 100% 30.03 in 5.0 mi Calm Calm - N/A   Scattered Clouds
3:15 PM 71.1 °F 71.2 °F 100% 30.03 in 5.0 mi Calm Calm - N/A Rain Light Rain
3:34 PM 70.7 °F 70.9 °F 100% 30.03 in 4.0 mi Calm Calm - 0.02 in Rain Rain
3:55 PM 70.7 °F 70.7 °F 100% 30.03 in 2.5 mi Calm Calm - 0.04 in Rain Rain
4:15 PM - - N/A% 30.04 in 1.5 mi South 3.5 mph - 0.06 in Rain Rain
4:34 PM 69.8 °F 70.0 °F 100% 30.02 in 5.0 mi SE 3.5 mph - 0.09 in Rain Light Rain
4:55 PM 70.7 °F 70.9 °F 100% 30.01 in 4.0 mi SE 3.5 mph - 0.09 in   Mostly Cloudy
5:15 PM 70.9 °F 71.1 °F 100% 30.01 in 4.0 mi Calm Calm - N/A   Mostly Cloudy
5:34 PM 71.1 °F 71.2 °F 100% 29.99 in 3.0 mi SE 4.6 mph - N/A   Mostly Cloudy
5:54 PM 70.7 °F 70.9 °F 100% 30.00 in 3.0 mi SE 4.6 mph - N/A   Mostly Cloudy
6:15 PM - - N/A% 29.99 in 4.0 mi SSE 4.6 mph - N/A   Mostly Cloudy
6:34 PM 70.0 °F 70.2 °F 100% 29.99 in 4.0 mi Calm Calm - N/A   Scattered Clouds
6:54 PM 69.4 °F 69.4 °F 100% 29.98 in 5.0 mi Calm Calm - N/A   Clear
7:15 PM 68.9 °F 69.1 °F 100% 29.98 in 7.0 mi Calm Calm - N/A   Clear
7:34 PM 68.9 °F 68.9 °F 100% 29.99 in 7.0 mi SSE 3.5 mph - N/A   Clear
7:55 PM 68.9 °F 68.9 °F 100% 30.00 in 10.0 mi Calm Calm - N/A   Clear
8:15 PM 68.9 °F 68.9 °F 100% 30.00 in 7.0 mi Calm Calm - N/A   Mostly Cloudy
8:34 PM 68.4 °F 68.5 °F 100% 30.00 in 7.0 mi Calm Calm - N/A   Overcast
8:55 PM 68.9 °F 69.1 °F 100% 30.01 in 10.0 mi Calm Calm - N/A   Overcast
9:15 PM 68.4 °F 68.5 °F 100% 30.01 in 7.0 mi Calm Calm - N/A   Overcast
9:34 PM 68.0 °F 68.2 °F 100% 30.01 in 7.0 mi Calm Calm - N/A   Scattered Clouds
9:54 PM 68.4 °F 68.7 °F 100% 30.01 in 7.0 mi SW 3.5 mph - N/A   Mostly Cloudy
10:15 PM 68.4 °F 68.5 °F 100% 30.00 in 7.0 mi Calm Calm - N/A   Overcast
10:34 PM 68.4 °F 68.5 °F 100% 30.01 in 10.0 mi Calm Calm - N/A   Overcast
10:54 PM 68.2 °F 68.4 °F 100% 30.00 in 7.0 mi Calm Calm - N/A   Overcast
11:15 PM 68.0 °F 68.2 °F 100% 30.00 in 7.0 mi Calm Calm - N/A   Overcast
11:34 PM 68.0 °F 68.0 °F 100% 29.99 in 7.0 mi Calm Calm - N/A   Overcast
11:55 PM 67.6 °F 68.0 °F 100% 29.99 in 7.0 mi Calm Calm - N/A   Overcast